| time (UTC) | temp F | wind direction | speed MPH | gust MPH | rain 1hr in | rain 24hr in | rain mn in | humidity % | barometer mb |
| 20260506191543 | 56 | 225 | 0.0 | 0.0 | 0.00 | 0.00 | 0.56 | 97 | 1014.5 |
| 20260506190913 | 56 | 243 | 0.0 | 0.0 | 0.00 | 0.00 | 0.56 | 97 | 1014.2 |
| 20260506190341 | 56 | 227 | 0.0 | 0.0 | 0.00 | 0.00 | 0.56 | 97 | 1014.2 |
| 20260506185719 | 56 | 219 | 0.0 | 0.0 | 0.00 | 0.00 | 0.54 | 97 | 1014.2 |
| 20260506184536 | 56 | 230 | 0.0 | 0.0 | 0.00 | 0.00 | 0.54 | 97 | 1014.2 |
| 20260506183920 | 56 | 229 | 0.0 | 0.0 | 0.00 | 0.00 | 0.54 | 97 | 1014.2 |
| 20260506183330 | 56 | 213 | 0.0 | 0.0 | 0.00 | 0.00 | 0.54 | 97 | 1014.2 |
| 20260506182741 | 56 | 254 | 0.0 | 0.0 | 0.00 | 0.00 | 0.54 | 97 | 1014.2 |
| 20260506181541 | 56 | 237 | 0.0 | 0.0 | 0.00 | 0.00 | 0.54 | 97 | 1013.8 |
| 20260506180936 | 56 | 218 | 0.0 | 0.0 | 0.00 | 0.00 | 0.54 | 97 | 1013.8 |
| 20260506180354 | 56 | 240 | 3.0 | 7.0 | 0.00 | 0.00 | 0.54 | 97 | 1013.5 |
| 20260506175748 | 56 | 242 | 3.0 | 5.0 | 0.00 | 0.00 | 0.54 | 97 | 1013.8 |
| 20260506175127 | 56 | 237 | 4.0 | 7.0 | 0.00 | 0.00 | 0.54 | 97 | 1013.5 |
| 20260506174531 | 56 | 258 | 4.0 | 5.0 | 0.00 | 0.00 | 0.54 | 97 | 1013.8 |
| 20260506173943 | 56 | 229 | 3.0 | 5.0 | 0.00 | 0.00 | 0.54 | 97 | 1013.8 |
| 20260506173318 | 56 | 210 | 3.0 | 5.0 | 0.00 | 0.00 | 0.54 | 97 | 1013.8 |
| 20260506172712 | 56 | 264 | 1.0 | 2.0 | 0.00 | 0.00 | 0.53 | 97 | 1013.8 |
| 20260506172141 | 56 | 218 | 2.0 | 2.0 | 0.00 | 0.00 | 0.53 | 97 | 1013.8 |
| 20260506170953 | 56 | 235 | 2.0 | 2.0 | 0.00 | 0.00 | 0.53 | 97 | 1013.8 |
| 20260506170310 | 56 | 273 | 2.0 | 5.0 | 0.00 | 0.00 | 0.53 | 97 | 1013.8 |
| 20260506163946 | 57 | 234 | 4.0 | 5.0 | 0.00 | 0.00 | 0.52 | 97 | 1013.8 |
| 20260506163334 | 57 | 207 | 3.0 | 5.0 | 0.00 | 0.00 | 0.52 | 97 | 1013.5 |
| 20260506162749 | 58 | 194 | 4.0 | 7.0 | 0.00 | 0.00 | 0.52 | 97 | 1013.5 |
| 20260506162115 | 58 | 295 | 3.0 | 5.0 | 0.00 | 0.00 | 0.52 | 97 | 1013.5 |
| 20260506161546 | 59 | 209 | 2.0 | 5.0 | 0.00 | 0.00 | 0.52 | 97 | 1013.5 |
| 20260506160934 | 60 | 269 | 3.0 | 5.0 | 0.00 | 0.00 | 0.52 | 97 | 1013.5 |
| 20260506160351 | 61 | 250 | 3.0 | 5.0 | 0.00 | 0.00 | 0.52 | 97 | 1013.5 |
| 20260506155711 | 62 | 226 | 4.0 | 5.0 | 0.00 | 0.00 | 0.52 | 97 | 1013.2 |
| 20260506155128 | 62 | 275 | 4.0 | 7.0 | 0.00 | 0.00 | 0.52 | 96 | 1013.2 |
| 20260506154542 | 63 | 248 | 4.0 | 5.0 | 0.00 | 0.00 | 0.52 | 96 | 1012.8 |
| 20260506153930 | 63 | 351 | 0.0 | 0.0 | 0.00 | 0.00 | 0.51 | 97 | 1012.8 |
| 20260506153334 | 63 | 249 | 1.0 | 2.0 | 0.00 | 0.00 | 0.51 | 96 | 1012.5 |
| 20260506152733 | 63 | 206 | 0.0 | 0.0 | 0.00 | 0.00 | 0.51 | 97 | 1012.5 |
| 20260506151533 | 62 | 186 | 0.0 | 0.0 | 0.00 | 0.00 | 0.51 | 97 | 1012.5 |
| 20260506150933 | 62 | 226 | 0.0 | 0.0 | 0.00 | 0.00 | 0.51 | 97 | 1012.5 |
| 20260506150311 | 62 | 67 | 0.0 | 0.0 | 0.00 | 0.00 | 0.51 | 97 | 1012.5 |
| 20260506145750 | 62 | 204 | 0.0 | 0.0 | 0.00 | 0.00 | 0.51 | 97 | 1012.1 |
| 20260506145133 | 62 | 67 | 3.0 | 5.0 | 0.00 | 0.00 | 0.51 | 97 | 1012.1 |
| 20260506144538 | 62 | 227 | 0.0 | 0.0 | 0.00 | 0.00 | 0.51 | 97 | 1011.8 |
| 20260506143929 | 62 | 101 | 0.0 | 0.0 | 0.00 | 0.00 | 0.51 | 97 | 1012.1 |
| 20260506143317 | 62 | 110 | 0.0 | 0.0 | 0.00 | 0.00 | 0.51 | 97 | 1011.8 |
| 20260506142716 | 62 | 106 | 0.0 | 0.0 | 0.00 | 0.00 | 0.51 | 97 | 1012.1 |
| 20260506142117 | 62 | 54 | 0.0 | 0.0 | 0.00 | 0.00 | 0.51 | 97 | 1011.8 |
| 20260506141523 | 62 | 104 | 2.0 | 2.0 | 0.00 | 0.00 | 0.51 | 98 | 1012.1 |
| 20260506140935 | 62 | 75 | 0.0 | 0.0 | 0.00 | 0.00 | 0.51 | 98 | 1012.1 |
| 20260506140343 | 61 | 61 | 0.0 | 0.0 | 0.00 | 0.00 | 0.51 | 98 | 1012.1 |
| 20260506135734 | 61 | 224 | 0.0 | 0.0 | 0.00 | 0.00 | 0.51 | 98 | 1012.1 |
| 20260506135139 | 61 | 89 | 0.0 | 0.0 | 0.00 | 0.00 | 0.51 | 97 | 1011.8 |
| 20260506134512 | 61 | 92 | 0.0 | 0.0 | 0.00 | 0.00 | 0.51 | 97 | 1012.1 |
| 20260506133920 | 61 | 86 | 0.0 | 0.0 | 0.00 | 0.00 | 0.51 | 97 | 1011.8 |
| 20260506133350 | 61 | 103 | 0.0 | 0.0 | 0.00 | 0.00 | 0.51 | 97 | 1011.5 |
| 20260506132744 | 61 | 210 | 0.0 | 0.0 | 0.00 | 0.00 | 0.51 | 98 | 1011.5 |
| 20260506132120 | 61 | 57 | 0.0 | 2.0 | 0.00 | 0.00 | 0.51 | 98 | 1011.1 |
| 20260506131514 | 61 | 171 | 0.0 | 0.0 | 0.00 | 0.00 | 0.51 | 98 | 1011.5 |
| 20260506130920 | 61 | 231 | 0.0 | 0.0 | 0.00 | 0.00 | 0.51 | 98 | 1011.1 |
| 20260506125727 | 60 | 194 | 0.0 | 0.0 | 0.00 | 0.00 | 0.51 | 98 | 1011.1 |
| 20260506125146 | 60 | 224 | 0.0 | 0.0 | 0.00 | 0.00 | 0.51 | 98 | 1010.8 |
| 20260506124511 | 60 | 194 | 0.0 | 0.0 | 0.00 | 0.00 | 0.51 | 98 | 1011.1 |
| 20260506123932 | 60 | 210 | 0.0 | 0.0 | 0.00 | 0.00 | 0.51 | 98 | 1010.8 |
| 20260506123320 | 60 | 71 | 0.0 | 2.0 | 0.00 | 0.00 | 0.51 | 98 | 1010.8 |
| 20260506122715 | 60 | 235 | 0.0 | 0.0 | 0.00 | 0.00 | 0.51 | 98 | 1010.8 |
| 20260506122149 | 60 | 142 | 0.0 | 0.0 | 0.00 | 0.00 | 0.51 | 98 | 1010.8 |
| 20260506121518 | 60 | 153 | 0.0 | 0.0 | 0.00 | 0.00 | 0.51 | 98 | 1010.8 |
| 20260506120310 | 60 | 213 | 0.0 | 0.0 | 0.00 | 0.00 | 0.51 | 98 | 1011.1 |
| 20260506115715 | 60 | 84 | 2.0 | 2.0 | 0.00 | 0.00 | 0.51 | 98 | 1010.8 |
| 20260506115122 | 59 | 108 | 0.0 | 0.0 | 0.00 | 0.00 | 0.51 | 98 | 1010.8 |
| 20260506114533 | 59 | 226 | 0.0 | 0.0 | 0.00 | 0.00 | 0.51 | 98 | 1010.8 |
| 20260506113948 | 59 | 87 | 0.0 | 0.0 | 0.00 | 0.00 | 0.51 | 98 | 1010.4 |
| 20260506112733 | 59 | 105 | 0.0 | 0.0 | 0.00 | 0.00 | 0.50 | 98 | 1010.1 |
| 20260506111515 | 59 | 180 | 0.0 | 0.0 | 0.00 | 0.00 | 0.50 | 98 | 1010.4 |
| 20260506110913 | 59 | 251 | 0.0 | 0.0 | 0.00 | 0.00 | 0.50 | 98 | 1010.8 |
| 20260506105711 | 59 | 229 | 0.0 | 0.0 | 0.00 | 0.00 | 0.48 | 98 | 1010.1 |
| 20260506105146 | 59 | 16 | 0.0 | 0.0 | 0.00 | 0.00 | 0.47 | 98 | 1010.1 |
| 20260506103921 | 59 | 252 | 0.0 | 0.0 | 0.00 | 0.00 | 0.45 | 98 | 1009.4 |
| 20260506103351 | 59 | 216 | 0.0 | 0.0 | 0.00 | 0.00 | 0.44 | 98 | 1009.4 |
| 20260506102708 | 59 | 196 | 0.0 | 0.0 | 0.00 | 0.00 | 0.44 | 98 | 1009.1 |
| 20260506102109 | 59 | 156 | 0.0 | 0.0 | 0.00 | 0.00 | 0.44 | 98 | 1008.8 |
| 20260506100950 | 59 | 61 | 2.0 | 2.0 | 0.00 | 0.00 | 0.44 | 98 | 1009.1 |
| 20260506095711 | 59 | 202 | 0.0 | 0.0 | 0.00 | 0.00 | 0.44 | 98 | 1009.1 |
| 20260506095149 | 59 | 153 | 0.0 | 0.0 | 0.00 | 0.00 | 0.44 | 98 | 1009.1 |
| 20260506094538 | 59 | 105 | 0.0 | 0.0 | 0.00 | 0.00 | 0.44 | 98 | 1009.4 |
| 20260506093321 | 59 | 218 | 0.0 | 0.0 | 0.00 | 0.00 | 0.41 | 98 | 1009.1 |
| 20260506092747 | 59 | 186 | 0.0 | 0.0 | 0.00 | 0.00 | 0.39 | 98 | 1009.1 |
| 20260506092113 | 59 | 183 | 0.0 | 0.0 | 0.00 | 0.00 | 0.38 | 98 | 1009.1 |
| 20260506090323 | 59 | 199 | 0.0 | 0.0 | 0.00 | 0.00 | 0.30 | 98 | 1009.1 |
| 20260506085736 | 59 | 216 | 0.0 | 0.0 | 0.00 | 0.00 | 0.28 | 98 | 1009.8 |
| 20260506085114 | 59 | 198 | 0.0 | 0.0 | 0.00 | 0.00 | 0.28 | 98 | 1009.1 |
| 20260506083926 | 59 | 207 | 0.0 | 0.0 | 0.00 | 0.00 | 0.28 | 97 | 1009.4 |
| 20260506083337 | 59 | 187 | 0.0 | 0.0 | 0.00 | 0.00 | 0.26 | 97 | 1009.4 |
| 20260506082737 | 59 | 230 | 0.0 | 0.0 | 0.00 | 0.00 | 0.24 | 97 | 1009.8 |
| 20260506082142 | 59 | 107 | 0.0 | 0.0 | 0.00 | 0.00 | 0.21 | 97 | 1009.4 |
| 20260506081514 | 59 | 39 | 0.0 | 0.0 | 0.00 | 0.00 | 0.19 | 97 | 1009.8 |
| 20260506080930 | 59 | 4 | 0.0 | 2.0 | 0.00 | 0.00 | 0.18 | 97 | 1009.4 |
| 20260506080318 | 59 | 188 | 0.0 | 0.0 | 0.00 | 0.00 | 0.13 | 97 | 1009.8 |
| 20260506073309 | 59 | 168 | 0.0 | 0.0 | 0.00 | 0.00 | 0.08 | 97 | 1010.1 |
| 20260506072709 | 58 | 211 | 0.0 | 0.0 | 0.00 | 0.00 | 0.08 | 97 | 1010.1 |
| 20260506072143 | 58 | 130 | 0.0 | 0.0 | 0.00 | 0.00 | 0.08 | 97 | 1010.1 |
| 20260506071550 | 58 | 128 | 0.0 | 0.0 | 0.00 | 0.00 | 0.06 | 97 | 1010.4 |
| 20260506070907 | 58 | 239 | 0.0 | 0.0 | 0.00 | 0.00 | 0.04 | 97 | 1010.8 |
| 20260506070330 | 58 | 231 | 0.0 | 0.0 | 0.00 | 0.00 | 0.04 | 96 | 1010.4 |
| 20260506062127 | 58 | 231 | 0.0 | 0.0 | 0.00 | 0.00 | 0.01 | 96 | 1010.4 |
| 20260506061510 | 58 | 227 | 0.0 | 0.0 | 0.00 | 0.00 | 0.01 | 96 | 1010.4 |
| 20260506060342 | 58 | 210 | 0.0 | 0.0 | 0.00 | 0.00 | 0.00 | 96 | 1010.4 |
| 20260506050949 | 59 | 226 | 0.0 | 0.0 | 0.00 | 0.00 | 0.00 | 95 | 1010.4 |
| 20260506050336 | 59 | 230 | 0.0 | 0.0 | 0.00 | 0.00 | 0.00 | 95 | 1010.1 |
| 20260506044516 | 59 | 229 | 0.0 | 0.0 | 0.00 | 0.00 | 0.00 | 94 | 1010.8 |
| 20260506043920 | 60 | 220 | 0.0 | 0.0 | 0.00 | 0.00 | 0.00 | 94 | 1010.8 |
| 20260506042725 | 60 | 210 | 0.0 | 0.0 | 0.00 | 0.00 | 0.00 | 94 | 1010.8 |
| 20260506042128 | 60 | 228 | 0.0 | 0.0 | 0.00 | 0.00 | 0.00 | 93 | 1011.1 |
| 20260506041543 | 60 | 234 | 0.0 | 0.0 | 0.00 | 0.00 | 0.00 | 93 | 1011.1 |
| 20260506040349 | 60 | 232 | 0.0 | 0.0 | 0.00 | 0.00 | 0.00 | 92 | 1010.8 |
| 20260506035712 | 60 | 227 | 0.0 | 0.0 | 0.00 | 0.00 | 0.00 | 90 | 1010.8 |
| 20260506035141 | 60 | 227 | 0.0 | 0.0 | 0.00 | 0.00 | 0.00 | 90 | 1010.8 |
| 20260506033948 | 60 | 222 | 0.0 | 0.0 | 0.00 | 0.00 | 0.00 | 89 | 1011.1 |
| 20260506033317 | 61 | 238 | 0.0 | 0.0 | 0.00 | 0.00 | 0.00 | 88 | 1011.1 |
| 20260506032715 | 61 | 220 | 0.0 | 0.0 | 0.00 | 0.00 | 0.00 | 88 | 1011.1 |
| 20260506032147 | 61 | 227 | 0.0 | 0.0 | 0.00 | 0.00 | 0.00 | 89 | 1011.1 |
| 20260506031550 | 61 | 225 | 0.0 | 0.0 | 0.00 | 0.00 | 0.00 | 87 | 1011.1 |
| 20260506030914 | 61 | 213 | 0.0 | 0.0 | 0.00 | 0.00 | 0.00 | 88 | 1010.8 |
| 20260506030347 | 61 | 231 | 0.0 | 0.0 | 0.00 | 0.00 | 0.00 | 87 | 1010.8 |
| 20260506025746 | 61 | 239 | 0.0 | 0.0 | 0.00 | 0.00 | 0.00 | 87 | 1011.1 |
| 20260506025129 | 61 | 224 | 0.0 | 0.0 | 0.00 | 0.00 | 0.00 | 87 | 1011.1 |
| 20260506024518 | 61 | 221 | 0.0 | 0.0 | 0.00 | 0.00 | 0.00 | 87 | 1011.1 |
| 20260506023916 | 61 | 124 | 0.0 | 0.0 | 0.00 | 0.00 | 0.00 | 88 | 1011.1 |
| 20260506023351 | 61 | 223 | 0.0 | 0.0 | 0.00 | 0.00 | 0.00 | 88 | 1011.5 |
| 20260506022716 | 61 | 224 | 0.0 | 0.0 | 0.00 | 0.00 | 0.00 | 88 | 1011.1 |
| 20260506022143 | 61 | 229 | 0.0 | 0.0 | 0.00 | 0.00 | 0.00 | 89 | 1011.1 |
| 20260506021545 | 61 | 219 | 0.0 | 0.0 | 0.00 | 0.00 | 0.00 | 89 | 1011.1 |
| 20260506020946 | 61 | 220 | 0.0 | 0.0 | 0.00 | 0.00 | 0.00 | 89 | 1010.8 |
| 20260506020333 | 61 | 221 | 0.0 | 0.0 | 0.00 | 0.00 | 0.00 | 89 | 1011.1 |
| 20260506015719 | 61 | 227 | 0.0 | 0.0 | 0.00 | 0.00 | 0.00 | 89 | 1010.8 |
| 20260506015150 | 62 | 211 | 0.0 | 0.0 | 0.00 | 0.00 | 0.00 | 89 | 1010.8 |
| 20260506014532 | 62 | 167 | 0.0 | 0.0 | 0.00 | 0.00 | 0.00 | 88 | 1011.1 |
| 20260506013937 | 62 | 234 | 0.0 | 0.0 | 0.00 | 0.00 | 0.00 | 89 | 1011.1 |
| 20260506013345 | 62 | 225 | 0.0 | 0.0 | 0.00 | 0.00 | 0.00 | 88 | 1011.1 |
| 20260506012147 | 63 | 223 | 0.0 | 0.0 | 0.00 | 0.00 | 0.00 | 87 | 1011.1 |
| 20260506010911 | 64 | 241 | 0.0 | 0.0 | 0.00 | 0.00 | 0.00 | 85 | 1011.1 |
| 20260506003348 | 66 | 227 | 0.0 | 0.0 | 0.00 | 0.00 | 0.00 | 79 | 1011.5 |
| 20260506002745 | 66 | 206 | 0.0 | 0.0 | 0.00 | 0.00 | 0.00 | 77 | 1011.5 |
| 20260506002128 | 66 | 239 | 0.0 | 0.0 | 0.00 | 0.00 | 0.00 | 80 | 1011.5 |
| 20260506001517 | 66 | 234 | 0.0 | 0.0 | 0.00 | 0.00 | 0.00 | 79 | 1011.8 |
| 20260506000919 | 67 | 236 | 0.0 | 0.0 | 0.00 | 0.00 | 0.00 | 78 | 1011.8 |
| 20260506000349 | 67 | 236 | 0.0 | 0.0 | 0.00 | 0.00 | 0.00 | 77 | 1011.8 |
| 20260505235739 | 68 | 240 | 0.0 | 0.0 | 0.00 | 0.00 | 0.00 | 75 | 1011.8 |
| 20260505235119 | 68 | 238 | 0.0 | 0.0 | 0.00 | 0.00 | 0.00 | 73 | 1011.8 |
| 20260505234527 | 68 | 233 | 0.0 | 0.0 | 0.00 | 0.00 | 0.00 | 74 | 1011.8 |
| 20260505233341 | 70 | 231 | 0.0 | 0.0 | 0.00 | 0.00 | 0.00 | 72 | 1011.8 |
| 20260505232713 | 70 | 256 | 0.0 | 0.0 | 0.00 | 0.00 | 0.00 | 71 | 1011.8 |
| 20260505232150 | 71 | 231 | 0.0 | 0.0 | 0.00 | 0.00 | 0.00 | 66 | 1011.8 |
| 20260505231552 | 72 | 99 | 0.0 | 0.0 | 0.00 | 0.00 | 0.00 | 65 | 1012.1 |
| 20260505230932 | 73 | 235 | 0.0 | 0.0 | 0.00 | 0.00 | 0.00 | 69 | 1012.1 |
| 20260505230345 | 74 | 212 | 0.0 | 0.0 | 0.00 | 0.00 | 0.00 | 55 | 1012.1 |
| 20260505225114 | 75 | 239 | 0.0 | 0.0 | 0.00 | 0.00 | 0.00 | 48 | 1011.8 |
| 20260505224513 | 75 | 112 | 0.0 | 0.0 | 0.00 | 0.00 | 0.00 | 46 | 1011.8 |
| 20260505223921 | 75 | 156 | 1.0 | 2.0 | 0.00 | 0.00 | 0.00 | 45 | 1011.8 |
| 20260505223312 | 75 | 70 | 2.0 | 2.0 | 0.00 | 0.00 | 0.00 | 45 | 1011.8 |
| 20260505222747 | 76 | 220 | 0.0 | 0.0 | 0.00 | 0.00 | 0.00 | 49 | 1011.8 |
| 20260505222114 | 76 | 305 | 1.0 | 5.0 | 0.00 | 0.00 | 0.00 | 44 | 1011.8 |
| 20260505221516 | 76 | 208 | 0.0 | 2.0 | 0.00 | 0.00 | 0.00 | 44 | 1012.1 |
| 20260505220313 | 77 | 223 | 1.0 | 5.0 | 0.00 | 0.00 | 0.00 | 43 | 1011.8 |
| 20260505215741 | 78 | 316 | 3.0 | 5.0 | 0.00 | 0.00 | 0.00 | 43 | 1011.8 |
| 20260505215149 | 78 | 219 | 3.0 | 5.0 | 0.00 | 0.00 | 0.00 | 44 | 1011.8 |
| 20260505214545 | 78 | 122 | 2.0 | 5.0 | 0.00 | 0.00 | 0.00 | 41 | 1011.8 |
| 20260505213941 | 78 | 227 | 0.0 | 0.0 | 0.00 | 0.00 | 0.00 | 42 | 1012.1 |
| 20260505213316 | 77 | 212 | 4.0 | 7.0 | 0.00 | 0.00 | 0.00 | 42 | 1011.8 |
| 20260505212742 | 77 | 52 | 0.0 | 0.0 | 0.00 | 0.00 | 0.00 | 43 | 1011.8 |
| 20260505212124 | 77 | 163 | 2.0 | 5.0 | 0.00 | 0.00 | 0.00 | 43 | 1011.8 |
| 20260505211527 | 78 | 77 | 3.0 | 7.0 | 0.00 | 0.00 | 0.00 | 43 | 1011.8 |
| 20260505210344 | 78 | 138 | 3.0 | 5.0 | 0.00 | 0.00 | 0.00 | 44 | 1012.5 |
| 20260505205752 | 78 | 85 | 4.0 | 7.0 | 0.00 | 0.00 | 0.00 | 42 | 1012.1 |
| 20260505205138 | 78 | 257 | 1.0 | 2.0 | 0.00 | 0.00 | 0.00 | 47 | 1012.1 |
| 20260505204543 | 78 | 25 | 1.0 | 2.0 | 0.00 | 0.00 | 0.00 | 44 | 1012.5 |
| 20260505203317 | 77 | 359 | 7.0 | 10.0 | 0.00 | 0.00 | 0.00 | 46 | 1012.8 |
| 20260505202754 | 77 | 340 | 6.0 | 7.0 | 0.00 | 0.00 | 0.00 | 44 | 1012.5 |
| 20260505202112 | 76 | 287 | 3.0 | 5.0 | 0.00 | 0.00 | 0.00 | 46 | 1012.8 |
| 20260505201532 | 76 | 19 | 0.0 | 2.0 | 0.00 | 0.00 | 0.00 | 46 | 1012.8 |
| 20260505200940 | 76 | 284 | 0.0 | 0.0 | 0.00 | 0.00 | 0.00 | 46 | 1012.8 |
| 20260505195709 | 76 | 7 | 4.0 | 7.0 | 0.00 | 0.00 | 0.00 | 46 | 1012.8 |
| 20260505194543 | 76 | 334 | 5.0 | 10.0 | 0.00 | 0.00 | 0.00 | 45 | 1013.2 |
| 20260505193940 | 76 | 73 | 3.0 | 5.0 | 0.00 | 0.00 | 0.00 | 45 | 1013.2 |
| 20260505193332 | 76 | 197 | 3.0 | 5.0 | 0.00 | 0.00 | 0.00 | 45 | 1013.5 |
| 20260505192115 | 76 | 37 | 7.0 | 10.0 | 0.00 | 0.00 | 0.00 | 45 | 1013.5 |